Notices

What's New in latest Release from April 7th, 2021:

- Updated Glossary, including Speed of Maximum Gust, and Total Hourly Precipitation

- Updated national and regional climate services offices contacts and prices information

- Addition of station inventory lists for 1981-2010, 1971-2000, and 1961-1990 Normals.

If you haven't already, please take our survey and provide feedback about our website: https://eccc.sondage-survey.ca/f/LanguageSelection.aspx?s=442ca660-fcf1-47c0-95a9-59707d6fd709

Hourly Data Report for December 27, 2019

SAINT JOHN A
NEW BRUNSWICK
Current Station Operator: NAVCAN

45°18'58.000" N
65°53'24.000" W
108.80 m
8104901
71609
YSJ

Download Data

Hourly Data (December 2019)
Hourly Data Report for December 27, 2019
TIME
LST
Temp Definition
°C
Dew Point Definition
°C
Rel Hum Definition
%
Precip. Amount Definition
mm

Wind Dir Definition
10's deg

Wind Spd Definition
km/h
Visibility Definition
km
Stn Press Definition
kPa
Hmdx Definition


Wind Chill Definition


Weather Definition


00:00 -13.2 -15.1 86   8 4 24.1 101.65   -16 LegendNANA
01:00 -14.7 -16.3 88   6 6 24.1 101.52   -19 LegendNANA
02:00 -13.2 -14.6 90   36 2 24.1 101.49   -15 Clear
03:00 -13.0 -14.8 86   36 1 24.1 101.52   -14 LegendNANA
04:00 -12.5 -14.0 89   36 2 24.1 101.48   -14 LegendNANA
05:00 -12.2 -14.0 86   5 3 24.1 101.42   -14 Cloudy
06:00 -11.9 -14.2 83   36 2 24.1 101.36   -13 LegendNANA
07:00 -11.0 -13.1 85   28 3 24.1 101.32   -13 LegendNANA
08:00 -9.9 -12.3 83   34 3 24.1 101.28   -12 Mostly Cloudy
09:00 -7.3 -11.9 70   26 7 24.1 101.27   -11 LegendNANA
10:00 -5.9 -10.1 73   36 3 24.1 101.21   -7 LegendNANA
11:00 -3.9 -8.6 70   16 4 16.1 101.10   -6 Cloudy
12:00 -3.2 -7.2 74   5 3 24.1 100.97   -4 LegendNANA
13:00 -2.4 -3.7 91   19 6 8.1 100.74   -5 Snow
14:00 1.0 0.6 97   20 19 8.1 100.55     Snow
15:00 2.1 1.5 96   21 26 4.8 100.42     Moderate Rain,Fog
16:00 2.0 1.6 97   20 21 4.8 100.28     Rain,Fog
17:00 3.2 2.6 96   20 23 8.1 100.14     Rain,Fog
18:00 3.9 3.5 97   21 35 4.8 99.99     Rain,Fog
19:00 4.4 4.0 98   21 32 4.8 99.83     Rain,Fog
20:00 5.1 4.8 98   22 31 3.2 99.72     Rain,Fog
21:00 5.1 4.5 96   24 17 24.1 99.63     Rain
22:00 4.5 3.9 96   25 18 24.1 99.59     LegendNANA
23:00 4.0 3.5 97   25 12 12.9 99.59     Cloudy

Notes on Data Quality.

Legend

  • E = Estimated
  • M = Missing
  • NA = Not Available*
  • [empty] = Indicates an unobserved value
Date modified: